{"data":{"norad_id":52588,"epoch":"2026-09-20T04:30:00.393120Z","epoch_age_seconds":90316,"freshness":"FRESH","line1":"1 52588U 22051BE  26263.18750455  .00000517  00000+0  25738-4 0  9993","line2":"2 52588  53.1615 319.5622 0001181  66.9668 293.1460 15.35402254241037","mean_motion":15.35402254,"eccentricity":0.0001181,"inclination_deg":53.1615,"raan_deg":319.5622,"arg_perigee_deg":66.9668,"mean_anomaly_deg":293.146,"bstar":2.5738e-5,"rev_number":24103,"period_min":93.786497723873,"perigee_km":458.91839904233,"apogee_km":460.53350227128,"semimajor_km":6837.8629506568,"source":"CELESTRAK","updated_at":"2026-09-20T09:00:40.067136Z"}}